Other Public Products
Issued by NWS Grand Forks, ND

Home | Current Version | Previous Version | Graphics & Text | Print | Product List | Glossary On
Versions: 1 2 3 4 5 6 7 8 9 10 11 12 13 14 15 16 17 18 19 20 21 22 23 24 25 26 27 28 29 30 31 32 33 34 35 36 37 38 39 40 41 42 43 44 45 46 47 48 49 50
000
FPUS83 KFGF 242131
OPUFGF
PRAIRIE TO PINES WEATHER ROUNDUP
NATIONAL WEATHER SERVICE EASTERN NORTH DAKOTA/GRAND FORKS ND
400 PM CDT THU APR 24 2014

 **SATELLITE DATA USED TO AUGMENT SKY COVER AT AUTOMATED STATIONS**
 *****  WEATHER ACROSS EASTERN NORTH DAKOTA  *****

CITY           SKY/WX    TMP DP  RH WIND       PRES   REMARKS
GRAND FORKS    CLOUDY    44  40  85 SE5       29.69F
GRAND FORKS AF CLOUDY    44  44  99 VRB3      29.69F
GRAND CITY NWS   N/A     43 N/A N/A S3          N/A
BUXTON           N/A     44  44  99 SE3         N/A
DEVILS LAKE    SUNNY     54  43  66 CALM      29.64S
FARGO          CLOUDY    49  43  80 VRB6      29.69F
WAHPETON ARPT  MOCLDY    50  41  71 CALM      29.68F
$$

 *****  WEATHER ACROSS CENTRAL AND WESTERN NORTH DAKOTA  *****

CITY           SKY/WX    TMP DP  RH WIND       PRES   REMARKS
JAMESTOWN      CLOUDY    58  30  34 NW18G24   29.64S
BISMARCK       PTSUNNY   63  18  17 NW14G24   29.69S
MINOT          PTSUNNY   60  34  37 NW20G28   29.66R
MINOT AFB      DRIZZLE   57  37  47 N18       29.66R
GARRISON         N/A     56  29  35 NW13G29   29.68S
WILLISTON      PTSUNNY   59  28  30 NW15      29.71F
DICKINSON      PTSUNNY   57  20  23 W16G31    29.71S
HETTINGER      MOSUNNY   60  17  18 NW24G35   29.75S
$$

 *****  OTHER OBSERVATIONS NORTHEAST NORTH DAKOTA  *****

CITY           SKY/WX    TMP DP  RH WIND       PRES   REMARKS
WALHALLA         N/A     41  41 100 E6        29.71S FOG
LANGDON        CLOUDY    45  41  87 SE3       29.67S
CAVALIER       CLOUDY    41  39  93 SE5       29.71S FOG
GRAFTON        CLOUDY    41  41 100 SE5       29.71S
CANDO          CLOUDY    52  43  71 NE8       29.66S
FORT TOTTEN      N/A     56  36  46 N5        29.95
ROLLA          CLOUDY    43  43 100 N20G28    29.70R
RUGBY          FAIR      55  43  62 NW18G25   29.64S THUNDER
 ***** THE ABOVE OBSERVATIONS ARE NON NWS ARE NOT QUALITY
        CONTROLLED AND MAY MIS-REPORT RAIN FOR SNOW...
$$

 *****  OTHER OBSERVATIONS SOUTHEAST NORTH DAKOTA *****

CITY           SKY/WX    TMP DP  RH WIND       PRES   REMARKS
COOPERSTOWN    FAIR      52  48  87 NE6       29.64F
VALLEY CITY    FAIR      55  43  62 NE3       29.65S
OAKES          MOCLDY    59  28  31 W16       29.64F
GWINNER        MOCLDY    57  43  58 SE5       29.66F
SHEYENNE NWR     N/A     57  45  64 SE5       29.95S
BUFFALO          N/A     52  42  69 SE5         N/A
WYNDMERE       NOT AVBL
 ***** THE ABOVE OBSERVATIONS ARE NON NWS ARE NOT QUALITY
       CONTROLLED AND MAY MIS-REPORT RAIN FOR SNOW...
$$

  *****  WEATHER ACROSS NORTHERN MINNESOTA  *****

CITY           SKY/WX    TMP DP  RH WIND       PRES   REMARKS
FLAG ISLAND    RAIN      36  34  93 E9        29.76S
WARROAD        MIX PCPN  36  32  87 E9        29.76S
ROSEAU         RAIN      36  30  80 E7        29.75S
HALLOCK        CLOUDY    41  37  87 E7        29.72F
THF RVR FALLS  CLOUDY    36  30  80 E12       29.73F
HALSTAD          N/A     44  41  88 SE5         N/A
FOSSTON        LGT SNOW  32  30  93 CALM      29.73S
BAUDETTE       LGT RAIN  37  35  92 E14       29.76F FOG
WASKISH        RAIN      36  34  93 E8        29.74S
CROOKSTON      CLOUDY    39  39 100 SE12      29.71F
$$
  *****  WEATHER ACROSS CENTRAL AND WEST MINNESOTA  *****

CITY           SKY/WX    TMP DP  RH WIND       PRES   REMARKS
BEMIDJI        SNOW      32  32 100 CALM      29.72F VSB 1/2
PARK RAPIDS    LGT SNOW  33  32  96 CALM      29.70F VSB 1
WADENA         CLOUDY    36  34  93 SE3       29.70S
DETROIT LAKES  CLOUDY    37  36  93 SE5       29.71F
MOORHEAD       PTSUNNY   48  46  93 S3        29.70F
FERGUS FALLS   CLOUDY    45  39  81 S3        29.67F
ELBOW LAKE     CLOUDY    46  40  81 CALM      29.70F
MORRIS MN      MOSUNNY   54  45  71 NW5       29.69F
STAPLES        RAIN      36  36 100 CALM      29.70F
WHEATON        MOSUNNY   55  46  71 SE3       29.70F
$$
  *****  WEATHER ELSEWHERE ACROSS MINNESOTA  *****

CITY           SKY/WX    TMP DP  RH WIND       PRES   REMARKS
DULUTH         LGT SNOW  33  31  92 E21G26    29.74F VSB 3/4 WCI  21
INTRNTL FALLS  LGT RAIN  36  34  92 E12       29.79F FOG
ELY            LGT SNOW  34  32  93 E13G18    29.80F VSB 1   WCI  25
CLOQUET        LGT SNOW  34  32  93 E8        29.73F VSB 1
BRAINERD       SNOW      37  32  82 CALM      29.71F VSB 1/2
HIBBING        LGT SNOW  34  32  92 E12       29.75F VSB 3/4
ALEXANDRIA     CLOUDY    43  38  82 CALM      29.71S
SAINT CLOUD    LGT RAIN  42  37  82 CALM      29.70S
MINNEAPOLIS    CLOUDY    43  41  93 CALM      29.68F
$$

  *****  WEATHER ACROSS SOUTH DAKOTA  *****

CITY           SKY/WX    TMP DP  RH WIND       PRES   REMARKS
SIOUX FALLS    MOSUNNY   61  42  49 N15       29.70F
BROOKINGS      NOT AVBL
WATERTOWN      LGT RAIN  57  43  59 SW6       29.68F
HURON          MOSUNNY   68  24  19 NW26G39   29.69F
SISSETON         N/A     54  43  66 VRB6      29.68F
ABERDEEN       MOSUNNY   63  21  20 NW22G32   29.68S
MITCHELL       MOSUNNY   70  23  17 NW29G37   29.71F
PIERRE         MOSUNNY   66  26  22 NW26      29.73F
MOBRIDGE       MOSUNNY   65  18  16 NW21G30   29.69S
RAPID CITY     SUNNY     62  25  24 CALM      29.78F
$$

  *****  SOME WEATHER IN NEARBY STATES *****

CITY           SKY/WX    TMP DP  RH WIND       PRES   REMARKS
GLASGOW MT     MOSUNNY   61  21  21 W16G28    29.71F
GREAT FALLS MT CLOUDY    56  33  42 SW24G30   29.70F
CHEYENNE WY    MOSUNNY   60  16  18 W21G26    29.89F
SCOTTSBLUFF NE PTSUNNY   66  18  15 W20G26    29.85F
OMAHA NE       CLOUDY    61  45  55 N18G26    29.73F
DES MOINES IA  CLOUDY    54  47  77 NW17G24   29.69R
DAVENPORT IA   CLOUDY    61  48  62 SE16      29.66F
CHICAGO IL     CLOUDY    63  30  28 SE25G32   29.77F
EAU CLAIRE WI  LGT RAIN  43  41  93 SE5       29.68F FOG
LA CROSSE WI   LGT RAIN  47  45  93 CALM      29.66S FOG
$$

  *****  SOME NATIONAL WEATHER *****

CITY           SKY/WX    TMP DP  RH WIND       PRES   REMARKS
LA GUARDIA NY  MOSUNNY   59  15  18 NW23G33   29.86S
RALEIGH NC     PTSUNNY   69  35  28 VRB3      30.01F
ATLANTA GA     MOSUNNY   78  48  34 SW8       29.94F
NEW ORLEANS LA PTSUNNY   81  65  58 S15       29.91F
OKLAHOMA CITY  MOSUNNY   75  39  27 N24G37    29.84S
ALBUQUERQUE NM PTSUNNY   66  10  11 E7        30.08F
SALT LAKE CITY PTSUNNY   65  18  16 VRB6      29.95F
LOS ANGELES CA SUNNY     69  51  52 W15       29.96F
BOISE ID       CLOUDY    58  41  53 E5        29.90F
SEATTLE WA     CLOUDY    52  45  76 SW15      29.85R
$$

*** WEATHER ACROSS MANITOBA...SASKATCHEWAN AND ONTARIO ***
                ***ONTARIO***

CITY           SKY/WX    TMP DP  RH WIND       PRES   REMARKS
GERALDTON      PTSUNNY   50  21  32 E9        30.00F
THUNDER BAY    CLOUDY    39  27  60 E15       29.97F
SIOUX LOOKOUT  CLOUDY    45  27  49 SE10G18   29.89F
TORONTO        MOSUNNY   54  18  24 N5        30.07S
BIG TROUT LK   SUNNY     34  21  60 E12G18    30.14F
PICKLE LAKE    PTSUNNY   52  23  32 SE13      29.93F
DRYDEN         CLOUDY    43  28  56 E10G21    29.84F
KENORA         LGT RAIN  37  36  93 SE14G20   29.81S
$$
                *** MANITOBA***

CITY           SKY/WX    TMP DP  RH WIND       PRES   REMARKS
BRANDON        PTSUNNY   48  41  76 VRB2      29.70S
DAUPHIN        CLOUDY    39  37  93 E14       29.72S
ISLAND LAKE    PTSUNNY   43  32  65 E16G22    30.02S
PILOT MOUND      N/A     45  41  87 N2          N/A
THE PAS        CLOUDY    36  25  64 E14G22    29.90R
THOMPSON       PTSUNNY   32  19  59 E18       30.13F WCI  20
WINNIPEG       LGT RAIN  37  36  93 E13       29.75S
LYNN LAKE      SUNNY     30  18  59 E18G24    30.12S WCI  18
CHURCHILL      MOSUNNY   18  12  79 NE10      30.43S WCI   6
GILLAM         MOSUNNY   28  18  64 E16       30.26S WCI  17
$$
                ***SASKATCHEWAN***

CITY           SKY/WX    TMP DP  RH WIND       PRES   REMARKS
ESTEVAN        LGT RAIN N/A N/A N/A NW16        N/A
KINDERSLEY     MOSUNNY   45  32  61 NW16G23   29.67S
LLOYDMINSTER   CLOUDY    37  36  93 E9        29.69S
PRINCE ALBERT  LGT SNOW  32  30  93 E18G28    29.73R FOG     WCI  20
REGINA         PTSUNNY   52  37  58 NW15G26   29.66F



USA.gov is the U.S. government's official web portal to all federal, state and local government web resources and services.